Regional Weather Roundup
Issued by NWS Sterling, VA

Home | Current Version | Previous Version | Text Only | Print | Product List | Glossary Off
Versions: 1 2 3 4 5 6 7 8 9 10 11 12 13 14 15 16 17 18 19 20 21 22 23 24 25 26 27 28 29 30 31 32 33 34 35 36 37 38 39 40 41 42 43 44 45 46 47 48 49 50

000
ASUS41 KLWX 031810
RWRLWX

REGIONAL WEATHER ROUNDUP
NATIONAL WEATHER SERVICE BALTIMORE MD/WASHINGTON DC
100 PM EST TUE MAR 03 2015

Note: "FAIR" indicates few or no clouds below 12,000 feet
with no significant weather and/or obstructions to visibility.
 TC=TEMPERATURE CELSIUS

 * =Non NWS site. Station does not report precipitation (e.g. rain,
    snow, etc.), thunder, or fog.

DCZ001-MDZ009-015-VAZ040>042-051-053>054-031900-
WASHINGTON METRO

CITY           SKY/WX    TMP DP  RH WIND       PRES   REMARKS
WASHINGTON NAT LGT RAIN  35  21  56 S10       30.32F WCI  27
DULLES         CLOUDY    31  17  56 S13G18    30.29F WCI  21
ANDREWS AFB    DRIZZLE   32  21  64 SE10      30.30F WCI  24
FT BELVOIR     LGT RAIN  32  19  59 SE8       30.31F WCI  25
QUANTICO       CLOUDY    33  22  63 S13       30.34F WCI  24
COLLEGE PARK*  CLOUDY    34  21  60 S6        30.32F
LEESBURG*      CLOUDY    32  21  64 S14       30.28F WCI  22
MANASSAS*      CLOUDY    34  21  60 S13       30.31F WCI  25
GAITHERSBURG*  CLOUDY    30  18  59 SE12      30.31F WCI  21

$$

MDZ006>007-011-014-031900-
BALTIMORE METRO

CITY           SKY/WX    TMP DP  RH WIND       PRES   REMARKS
BWI AIRPORT    FRZ RAIN  30  18  60 S6        30.32F
MD SCIENCE CTR   N/A     30  19  63 MISG      30.31F
MARTIN STATE   CLOUDY    32  21  64 SE12      30.33F WCI  23
ANNAPOLIS      MIX PCPN  31  19  61 S9        30.33F WCI  23
FORT MEADE*    CLOUDY    32  21  64 SE8       30.34F WCI  25

$$

MDZ012-015-019>023-031900-
MARYLAND EASTERN SHORE

CITY           SKY/WX    TMP DP  RH WIND       PRES   REMARKS
OCEAN CITY     CLOUDY    35  21  56 E3        30.36F
SALISBURY      CLOUDY    39  22  50 SE8       30.34F
BAY BRIDGE AP* LGT RAIN  32  18  55 S8        30.33F WCI  25
CAMBRIDGE*     CLOUDY    36  21  55 SE7       30.33F
EASTON*        CLOUDY    36  21  55 SE8       30.37F

$$

MDZ017>025-031900-
SOUTHERN MARYLAND

CITY           SKY/WX    TMP DP  RH WIND       PRES   REMARKS
PATUXENT RIVER FRZ RAIN  32  22  66 SE10      30.33F WCI  24
ST INIGOES     CLOUDY    32  21  64 SE7       30.33
LEONARDTOWN*   CLOUDY    32  21  64 S8        30.35F WCI  25

$$

MDZ003>005-031900-
NORTH CENTRAL MARYLAND

CITY           SKY/WX    TMP DP  RH WIND       PRES   REMARKS
FREDERICK*     CLOUDY    34  12  40 S8        30.30F WCI  27
HAGERSTOWN APT CLOUDY    32  14  47 S17       30.22F WCI  21
WESTMINSTER*   MIX PCPN  28  18  64 S16       30.24F WCI  17

$$

MDZ501>502-031900-
WESTERN MARYLAND

CITY           SKY/WX    TMP DP  RH WIND       PRES   REMARKS
OAKLAND*       CLOUDY    27  27 100 SE16      29.97F FOG     WCI  14
CUMBERLAND*    CLOUDY    36  19  51 CALM      30.17F

$$

VAZ025>031-031900-
SHENANDOAH VALLEY

CITY           SKY/WX    TMP DP  RH WIND       PRES   REMARKS
WINCHESTER*    CLOUDY    34  12  40 SE14G21   30.20F WCI  24
FRONT ROYAL*   CLOUDY    34  18  51 S9        30.20F WCI  26
LURAY*         CLOUDY    37  25  60 SW16G22   30.19F WCI  28
NEW MARKET*    CLOUDY    34  23  62 SW15G22   30.19F WCI  25
STAUNTON*      CLOUDY    33  19  56 S13G21    30.23F WCI  24
WAYNESBORO*    CLOUDY    32  21  63 S6        30.21F

$$

WVZ021-048>050-054>055-031900-
EASTERN WEST VIRGINIA PANHANDLE

CITY           SKY/WX    TMP DP  RH WIND       PRES   REMARKS
MARTINSBURG    CLOUDY    33  16  49 S12       30.22F WCI  24
PETERSBURG*    NOT AVBL

$$

VAZ036>039-050-031900-
CENTRAL FOOTHILLS

CITY           SKY/WX    TMP DP  RH WIND       PRES   REMARKS
CHARLOTTESVILL CLOUDY    33  16  49 S9        30.27F WCI  25
CULPEPER*      CLOUDY    36  18  48 S8        30.29F
ORANGE*        CLOUDY    34  19  55 S9        30.31F WCI  26
GORDONSVILLE*  CLOUDY    33  17  51 S8        30.28F WCI  26
WARRENTON*     CLOUDY    35  22  60 S8        30.29F WCI  28

$$

VAZ055>057-031900-
NORTH AND CENTRAL PIEDMONT

CITY           SKY/WX    TMP DP  RH WIND       PRES   REMARKS
FREDERICKSBRG* CLOUDY    35  20  52 S8        30.32F WCI  29
STAFFORD*      CLOUDY    33  14  45 S8        30.35F WCI  27

$$

NCZ024-NYZ072-PAZ021-071-VAZ022-071-031900-
OTHER REGIONAL OBSERVATIONS

CITY           SKY/WX    TMP DP  RH WIND       PRES   REMARKS
NEW YORK CITY  CLOUDY    30  12  47 VRB3      30.38F
PHILADELPHIA   CLOUDY    32  12  43 S7        30.34F
PITTSBURGH     CLOUDY    33  20  58 SE13      29.93F WCI  24
ROANOKE        CLOUDY    36  25  64 S10       30.28F WCI  28
RICHMOND       CLOUDY    36  20  52 S7        30.33F
RALEIGH        CLOUDY    39  17  41 CALM      30.32F

$$

ANZ530>537-031900-
MARINE OBSERVATIONS

STATION/POSITION TIME  TEMP    WIND        PRES
                       AIR SEA DIR/SP/G
                 (UTC) (F)     (DEG/KT/KT) (MB)
THOMAS PT LIGHT  1800   30 31  180/ 10/ 12 1028.1F
BALT KEY BRIDGE  1700   29     110/ 11/ 12 1028.8F
COVE POINT       1700   29     190/ 11/ 11 1028.9F
LEWISETTA        1700   33 33   CALM  /  3 1028.7F
SOLOMONS ISLAND  1700      33                N/A

$$



USA.gov is the U.S. government's official web portal to all federal, state and local government web resources and services.